Regional Weather Roundup
Issued by NWS

Home | Current Version | Previous Version | Graphics & Text | Print | Product List | Glossary On
Versions: 1 2 3 4 5 6 7 8 9 10 11 12 13 14 15 16 17 18 19 20 21 22 23 24 25 26 27 28 29 30 31 32 33 34 35 36 37 38 39 40 41 42 43 44 45 46 47 48 49 50
000
ASUS45 KCYS 070910
RWRWY

WYOMING REGIONAL WEATHER ROUNDUP
NATIONAL WEATHER SERVICE CHEYENNE WY
300 AM MDT TUE JUL 07 2015

NOTE:  "FAIR" INDICATES FEW OR NO CLOUDS BELOW 12,000 FEET
WITH NO SIGNIFICANT WEATHER AND/OR OBSTRUCTIONS TO VISIBILITY.

WYZ001-071000-
YELLOWSTONE NATIONAL PARK

CITY           SKY/WX    TMP DP  RH WIND       PRES   REMARKS
LK YELLOWSTONE   N/A     49  47  93 CALM      30.33F
W YELLOWSTONE  NOT AVBL

$$
WYZ002>013-054>058-071-098>099-071000-
NORTHERN WYOMING

CITY           SKY/WX    TMP DP  RH WIND       PRES   REMARKS
JACKSON        MOCLDY    52  48  87 CALM      30.25S
CODY           FAIR      57  50  77 SW5       30.16S
GREYBULL       FAIR      60  50  69 SE3       30.10S
WORLAND        MOCLDY    63  53  70 S7        30.10F
SHERIDAN       FAIR      50  48  93 CALM      30.12F
BUFFALO        FAIR      52  48  86 S6        30.16F
GILLETTE       FAIR      53  51  93 S12       30.16F
HULETT         FAIR      57  52  82 S6        30.19F
NEWCASTLE      FAIR      55  50  82 E8        30.22S

$$
WYZ014>020-022>026-101>103-071000-
CENTRAL WYOMING

CITY           SKY/WX    TMP DP  RH WIND       PRES   REMARKS
BIG PINEY      FAIR      53  50  89 CALM      30.28F
PINEDALE       CLOUDY    52  52 100 W5        30.29S
DUBOIS         CLOUDY    50  46  87 NW14      30.28S
LANDER         CLOUDY    56  53  90 N7        30.18F
RIVERTON       MOCLDY    56  53  90 NW8       30.18F
CASPER         FAIR      54  51  90 E6        30.19F FOG
DOUGLAS        FAIR      56  53  90 SE15      30.19F FOG

$$
WYZ021-027>030-104>119-071000-
SOUTHERN WYOMING

CITY           SKY/WX    TMP DP  RH WIND       PRES   REMARKS
EVANSTON       FAIR      55  48  77 E7        30.25S
KEMMERER       PTSUNNY   48  46  93 N8        30.28S
FORT BRIDGER   MOSUNNY   54  54 100 MISG      30.28F
ROCK SPRINGS   CLOUDY    54  52  93 E5        30.25S
DIXON          FAIR      56  53  89 NE7       30.24F
RAWLINS        CLOUDY    56  52  86 NE9       30.25S
SARATOGA       FAIR      54  52  94 CALM      30.26F
LARAMIE        CLOUDY    53  50  89 SE16G23   30.29F
CHEYENNE       CLOUDY    53  52  96 SE8       30.28F FOG
TORRINGTON     CLOUDY    61  55  81 S7        30.21F HAZE
PINE BLUFFS    CLOUDY    55  54  94 S5        30.27S FOG

$$



USA.gov is the U.S. government's official web portal to all federal, state and local government web resources and services.